,,Stat6,,Stat2,,Stat8,,Stat9,,Stat10,,Wind1,,Wind1,
time,status,PA1M_AVG,status,PR1M_SUM,status,RH1M_AVG,status,SR1M_AVG,status,TA1M_AVG,status,W1dAve1m,status,W1sAve1m,
2008-02-23, 00:00:00,VALID,917.937,VALID,0,VALID,100,VALID,-0.0679233,VALID,20.1736,VALID,9,VALID,0,
2008-02-23, 00:01:00,VALID,917.928,VALID,0,VALID,100,VALID,-0.0849042,VALID,20.1598,VALID,9,VALID,0,
2008-02-23, 00:02:00,VALID,917.931,VALID,0,VALID,100,VALID,-0.118866,VALID,20.1471,VALID,9,VALID,0,
2008-02-23, 00:03:00,VALID,917.932,VALID,0,VALID,100,VALID,-0.101885,VALID,20.1573,VALID,9,VALID,0,
2008-02-23, 00:04:00,VALID,917.958,VALID,0,VALID,100,VALID,-0.0679233,VALID,20.1244,VALID,9,VALID,0,
2008-02-23, 00:05:00,VALID,917.951,VALID,0,VALID,100,VALID,-0.101885,VALID,20.0952,VALID,9,VALID,0,
2008-02-23, 00:06:00,VALID,917.95,VALID,0,VALID,100,VALID,-0.0679233,VALID,20.0725,VALID,11,VALID,0,
2008-02-23, 00:07:00,VALID,917.931,VALID,0,VALID,100,VALID,-0.0509425,VALID,20.063,VALID,18,VALID,0,
2008-02-23, 00:08:00,VALID,917.924,VALID,0,VALID,100,VALID,-0.0679233,VALID,20.0597,VALID,28,VALID,0,
2008-02-23, 00:09:00,VALID,917.903,VALID,0,VALID,100,VALID,-0.0849042,VALID,20.05,VALID,29,VALID,0,
2008-02-23, 00:10:00,VALID,917.886,VALID,0,VALID,100,VALID,-0.0679233,VALID,20.0435,VALID,29,VALID,0,
2008-02-23, 00:11:00,VALID,917.879,VALID,0,VALID,100,VALID,-0.101885,VALID,20.0597,VALID,29,VALID,0,
2008-02-23, 00:12:00,VALID,917.872,VALID,0,VALID,100,VALID,-0.0509425,VALID,20.1081,VALID,29,VALID,0,
2008-02-23, 00:13:00,VALID,917.892,VALID,0,VALID,100,VALID,0.0509425,VALID,20.1391,VALID,27,VALID,0.188244,
2008-02-23, 00:14:00,VALID,917.886,VALID,0,VALID,100,VALID,0.0339617,VALID,20.1096,VALID,27,VALID,0.420422,
2008-02-23, 00:15:00,VALID,917.899,VALID,0,VALID,100,VALID,0.0509425,VALID,20.1328,VALID,27,VALID,0.367188,
2008-02-23, 00:16:00,VALID,917.896,VALID,0,VALID,100,VALID,0.0339617,VALID,20.1358,VALID,27,VALID,0.166349,
2008-02-23, 00:17:00,VALID,917.9,VALID,0,VALID,100,VALID,0.0339617,VALID,20.1361,VALID,28,VALID,0,
2008-02-23, 00:18:00,VALID,917.891,VALID,0,VALID,100,VALID,0.0169808,VALID,20.1685,VALID,28,VALID,0,
2008-02-23, 00:19:00,VALID,917.889,VALID,0,VALID,100,VALID,0.0169808,VALID,20.178,VALID,28,VALID,0,
2008-02-23, 00:20:00,VALID,917.869,VALID,0,VALID,100,VALID,0,VALID,20.191,VALID,28,VALID,0,
2008-02-23, 00:21:00,VALID,917.851,VALID,0,VALID,100,VALID,0.0339617,VALID,20.2007,VALID,27,VALID,0,
2008-02-23, 00:22:00,VALID,917.848,VALID,0,VALID,100,VALID,0,VALID,20.1942,VALID,26,VALID,0,
2008-02-23, 00:23:00,VALID,917.833,VALID,0,VALID,100,VALID,0.0339617,VALID,20.188,VALID,26,VALID,0,
2008-02-23, 00:24:00,VALID,917.838,VALID,0,VALID,100,VALID,0.0679233,VALID,20.1842,VALID,26,VALID,0,
2008-02-23, 00:25:00,VALID,917.852,VALID,0,VALID,100,VALID,0.0169808,VALID,20.207,VALID,27,VALID,0,
2008-02-23, 00:26:00,VALID,917.859,VALID,0,VALID,100,VALID,0.0339617,VALID,20.2267,VALID,34,VALID,0,
2008-02-23, 00:27:00,VALID,917.856,VALID,0,VALID,100,VALID,0.0339617,VALID,20.2362,VALID,34,VALID,0,
2008-02-23, 00:28:00,VALID,917.842,VALID,0,VALID,100,VALID,0,VALID,20.2507,VALID,34,VALID,0,
2008-02-23, 00:29:00,VALID,917.822,VALID,0,VALID,100,VALID,-0.0679233,VALID,20.2607,VALID,21,VALID,0,
2008-02-23, 00:30:00,VALID,917.8,VALID,0,VALID,100,VALID,-0.0339617,VALID,20.2731,VALID,16,VALID,0,
2008-02-23, 00:31:00,VALID,917.787,VALID,0,VALID,100,VALID,-0.0849042,VALID,20.2961,VALID,14,VALID,0,
2008-02-23, 00:32:00,VALID,917.784,VALID,0,VALID,100,VALID,-0.0169808,VALID,20.3093,VALID,14,VALID,0,
2008-02-23, 00:33:00,VALID,917.789,VALID,0,VALID,100,VALID,-0.0509425,VALID,20.3223,VALID,11,VALID,0,
2008-02-23, 00:34:00,VALID,917.782,VALID,0,VALID,100,VALID,-0.0339617,VALID,20.3348,VALID,11,VALID,0,
2008-02-23, 00:35:00,VALID,917.79,VALID,0,VALID,100,VALID,-0.0509425,VALID,20.3678,VALID,11,VALID,0,
2008-02-23, 00:36:00,VALID,917.78,VALID,0,VALID,100,VALID,-0.0679233,VALID,20.3775,VALID,11,VALID,0,
2008-02-23, 00:37:00,VALID,917.776,VALID,0,VALID,100,VALID,-0.0679233,VALID,20.3937,VALID,11,VALID,0,
2008-02-23, 00:38:00,VALID,917.764,VALID,0,VALID,100,VALID,-0.0679233,VALID,20.4035,VALID,11,VALID,0,
2008-02-23, 00:39:00,VALID,917.749,VALID,0,VALID,100,VALID,-0.0849042,VALID,20.3937,VALID,11,VALID,0,
2008-02-23, 00:40:00,VALID,917.741,VALID,0,VALID,100,VALID,-0.0339617,VALID,20.3707,VALID,35,VALID,0,
2008-02-23, 00:41:00,VALID,917.724,VALID,0,VALID,100,VALID,-0.0849042,VALID,20.3578,VALID,35,VALID,0,
2008-02-23, 00:42:00,VALID,917.69,VALID,0,VALID,100,VALID,-0.0679233,VALID,20.3645,VALID,35,VALID,0,
2008-02-23, 00:43:00,VALID,917.67,VALID,0,VALID,100,VALID,0.0169808,VALID,20.3597,VALID,35,VALID,0,
2008-02-23, 00:44:00,VALID,917.662,VALID,0,VALID,100,VALID,0.0509425,VALID,20.3792,VALID,30,VALID,0,
2008-02-23, 00:45:00,VALID,917.639,VALID,0,VALID,100,VALID,0.0169808,VALID,20.3562,VALID,2,VALID,0,
2008-02-23, 00:46:00,VALID,917.639,VALID,0,VALID,100,VALID,0.0339617,VALID,20.3727,VALID,28,VALID,0,
2008-02-23, 00:47:00,VALID,917.634,VALID,0,VALID,100,VALID,0.0849042,VALID,20.3894,VALID,28,VALID,0,
2008-02-23, 00:48:00,VALID,917.63,VALID,0,VALID,100,VALID,0.0509425,VALID,20.3759,VALID,28,VALID,0,
2008-02-23, 00:49:00,VALID,917.629,VALID,0,VALID,100,VALID,0.0849042,VALID,20.3824,VALID,28,VALID,0,
2008-02-23, 00:50:00,VALID,917.61,VALID,0,VALID,100,VALID,0.0509425,VALID,20.3824,VALID,28,VALID,0,
2008-02-23, 00:51:00,VALID,917.595,VALID,0,VALID,100,VALID,0.0169808,VALID,20.3759,VALID,28,VALID,0,
2008-02-23, 00:52:00,VALID,917.574,VALID,0,VALID,100,VALID,0.101885,VALID,20.3724,VALID,28,VALID,0,
2008-02-23, 00:53:00,VALID,917.544,VALID,0,VALID,100,VALID,0.0509425,VALID,20.3727,VALID,28,VALID,0,
2008-02-23, 00:54:00,VALID,917.519,VALID,0,VALID,100,VALID,0.0169808,VALID,20.3692,VALID,28,VALID,0,
2008-02-23, 00:55:00,VALID,917.483,VALID,0,VALID,100,VALID,0.0339617,VALID,20.3762,VALID,28,VALID,0,
2008-02-23, 00:56:00,VALID,917.457,VALID,0,VALID,100,VALID,0.0169808,VALID,20.334,VALID,28,VALID,0,
2008-02-23, 00:57:00,VALID,917.429,VALID,0,VALID,100,VALID,0.0339617,VALID,20.2951,VALID,28,VALID,0,
2008-02-23, 00:58:00,VALID,917.41,VALID,0,VALID,100,VALID,-0.0849042,VALID,20.2669,VALID,28,VALID,0,
2008-02-23, 00:59:00,VALID,917.397,VALID,0,VALID,100,VALID,-0.0509425,VALID,20.2637,VALID,28,VALID,0,
2008-02-23, 01:00:00,VALID,917.391,VALID,0,VALID,100,VALID,-0.0509425,VALID,20.2672,VALID,28,VALID,0,
2008-02-23, 01:01:00,VALID,917.391,VALID,0,VALID,100,VALID,-0.0509425,VALID,20.2509,VALID,28,VALID,0,
2008-02-23, 01:02:00,VALID,917.392,VALID,0,VALID,100,VALID,-0.0339617,VALID,20.2379,VALID,28,VALID,0,
2008-02-23, 01:03:00,VALID,917.377,VALID,0,VALID,100,VALID,-0.0339617,VALID,20.2544,VALID,28,VALID,0,
2008-02-23, 01:04:00,VALID,917.365,VALID,0,VALID,100,VALID,-0.0339617,VALID,20.2574,VALID,28,VALID,0,
2008-02-23, 01:05:00,VALID,917.352,VALID,0,VALID,100,VALID,-0.0339617,VALID,20.2542,VALID,28,VALID,0,
2008-02-23, 01:06:00,VALID,917.344,VALID,0,VALID,100,VALID,-0.0339617,VALID,20.2442,VALID,28,VALID,0,
2008-02-23, 01:07:00,VALID,917.314,VALID,0,VALID,100,VALID,-0.0169808,VALID,20.2412,VALID,28,VALID,0,
2008-02-23, 01:08:00,VALID,917.305,VALID,0,VALID,100,VALID,-0.0509425,VALID,20.2412,VALID,28,VALID,0,
2008-02-23, 01:09:00,VALID,917.286,VALID,0,VALID,100,VALID,-0.0339617,VALID,20.2572,VALID,28,VALID,0,
2008-02-23, 01:10:00,VALID,917.279,VALID,0,VALID,100,VALID,-0.0679233,VALID,20.2704,VALID,28,VALID,0,
2008-02-23, 01:11:00,VALID,917.279,VALID,0,VALID,100,VALID,-0.0509425,VALID,20.2866,VALID,28,VALID,0,
2008-02-23, 01:12:00,VALID,917.257,VALID,0,VALID,100,VALID,-0.0339617,VALID,20.3093,VALID,28,VALID,0,
2008-02-23, 01:13:00,VALID,917.245,VALID,0,VALID,100,VALID,0.0169808,VALID,20.3238,VALID,28,VALID,0,
2008-02-23, 01:14:00,VALID,917.23,VALID,0,VALID,100,VALID,0.0679233,VALID,20.3173,VALID,28,VALID,0,
2008-02-23, 01:15:00,VALID,917.234,VALID,0,VALID,100,VALID,0.0169808,VALID,20.3238,VALID,28,VALID,0,
2008-02-23, 01:16:00,VALID,917.223,VALID,0,VALID,100,VALID,0.0339617,VALID,20.3373,VALID,28,VALID,0,
2008-02-23, 01:17:00,VALID,917.21,VALID,0,VALID,100,VALID,0.0339617,VALID,20.3338,VALID,28,VALID,0,
2008-02-23, 01:18:00,VALID,917.206,VALID,0,VALID,100,VALID,0.0679233,VALID,20.3175,VALID,28,VALID,0,
2008-02-23, 01:19:00,VALID,917.2,VALID,0,VALID,100,VALID,0.0169808,VALID,20.3208,VALID,28,VALID,0,
2008-02-23, 01:20:00,VALID,917.198,VALID,0,VALID,100,VALID,0.0339617,VALID,20.3108,VALID,28,VALID,0,
2008-02-23, 01:21:00,VALID,917.197,VALID,0,VALID,100,VALID,0.0339617,VALID,20.2981,VALID,28,VALID,0,
2008-02-23, 01:22:00,VALID,917.186,VALID,0,VALID,100,VALID,0.0849042,VALID,20.2913,VALID,28,VALID,0,
2008-02-23, 01:23:00,VALID,917.182,VALID,0,VALID,100,VALID,0.0679233,VALID,20.2718,VALID,28,VALID,0,
2008-02-23, 01:24:00,VALID,917.162,VALID,0,VALID,100,VALID,0.0679233,VALID,20.2489,VALID,28,VALID,0,
2008-02-23, 01:25:00,VALID,917.158,VALID,0,VALID,100,VALID,0.0509425,VALID,20.2294,VALID,28,VALID,0,
2008-02-23, 01:26:00,VALID,917.136,VALID,0,VALID,100,VALID,0.101885,VALID,20.2099,VALID,28,VALID,0,
2008-02-23, 01:27:00,VALID,917.128,VALID,0,VALID,100,VALID,0.0169808,VALID,20.1777,VALID,28,VALID,0,
2008-02-23, 01:28:00,VALID,917.129,VALID,0,VALID,100,VALID,0.0509425,VALID,20.158,VALID,28,VALID,0,
2008-02-23, 01:29:00,VALID,917.14,VALID,0,VALID,100,VALID,0.0849042,VALID,20.1715,VALID,28,VALID,0,
2008-02-23, 01:30:00,VALID,917.136,VALID,0,VALID,100,VALID,0.0849042,VALID,20.1715,VALID,28,VALID,0,
2008-02-23, 01:31:00,VALID,917.122,VALID,0,VALID,100,VALID,0.0509425,VALID,20.1456,VALID,28,VALID,0,
2008-02-23, 01:32:00,VALID,917.101,VALID,0,VALID,100,VALID,0.0339617,VALID,20.1164,VALID,28,VALID,0,
2008-02-23, 01:33:00,VALID,917.076,VALID,0,VALID,100,VALID,0.0509425,VALID,20.1001,VALID,28,VALID,0,
2008-02-23, 01:34:00,VALID,917.057,VALID,0,VALID,100,VALID,0.0509425,VALID,20.0807,VALID,28,VALID,0,
2008-02-23, 01:35:00,VALID,917.031,VALID,0,VALID,100,VALID,0.0509425,VALID,20.0774,VALID,28,VALID,0,
2008-02-23, 01:36:00,VALID,917.026,VALID,0,VALID,100,VALID,0.0169808,VALID,20.0677,VALID,28,VALID,0,
2008-02-23, 01:37:00,VALID,917.017,VALID,0,VALID,100,VALID,0.0339617,VALID,20.0642,VALID,28,VALID,0,
2008-02-23, 01:38:00,VALID,917.001,VALID,0,VALID,100,VALID,0.0849042,VALID,20.0637,VALID,28,VALID,0,
2008-02-23, 01:39:00,VALID,916.986,VALID,0,VALID,100,VALID,0.0339617,VALID,20.0872,VALID,28,VALID,0,
2008-02-23, 01:40:00,VALID,916.942,VALID,0,VALID,100,VALID,0.0679233,VALID,20.0704,VALID,28,VALID,0,
2008-02-23, 01:41:00,VALID,916.896,VALID,0,VALID,100,VALID,0.0509425,VALID,20.0674,VALID,28,VALID,0,
2008-02-23, 01:42:00,VALID,916.882,VALID,0,VALID,100,VALID,0.0849042,VALID,20.0534,VALID,28,VALID,0,
2008-02-23, 01:43:00,VALID,916.878,VALID,0,VALID,100,VALID,0.0849042,VALID,20.0674,VALID,28,VALID,0,
2008-02-23, 01:44:00,VALID,916.883,VALID,0,VALID,100,VALID,0.0679233,VALID,20.0739,VALID,28,VALID,0,
2008-02-23, 01:45:00,VALID,916.875,VALID,0,VALID,100,VALID,0.0849042,VALID,20.0709,VALID,28,VALID,0,
2008-02-23, 01:46:00,VALID,916.872,VALID,0,VALID,100,VALID,0.0679233,VALID,20.0739,VALID,28,VALID,0,
2008-02-23, 01:47:00,VALID,916.852,VALID,0,VALID,100,VALID,0.0509425,VALID,20.0577,VALID,28,VALID,0,
2008-02-23, 01:48:00,VALID,916.835,VALID,0,VALID,100,VALID,0,VALID,20.0255,VALID,28,VALID,0,
2008-02-23, 01:49:00,VALID,916.816,VALID,0,VALID,100,VALID,0.0679233,VALID,19.9736,VALID,28,VALID,0,
2008-02-23, 01:50:00,VALID,916.795,VALID,0,VALID,100,VALID,0.0679233,VALID,19.9347,VALID,28,VALID,0,
2008-02-23, 01:51:00,VALID,916.771,VALID,0,VALID,100,VALID,0.0509425,VALID,19.9119,VALID,28,VALID,0,
2008-02-23, 01:52:00,VALID,916.737,VALID,0,VALID,100,VALID,0.0169808,VALID,19.9052,VALID,28,VALID,0,
2008-02-23, 01:53:00,VALID,916.717,VALID,0,VALID,100,VALID,0.0169808,VALID,19.9084,VALID,28,VALID,0,
2008-02-23, 01:54:00,VALID,916.693,VALID,0,VALID,100,VALID,0.0509425,VALID,19.9182,VALID,28,VALID,0,
2008-02-23, 01:55:00,VALID,916.697,VALID,0,VALID,100,VALID,0.0509425,VALID,19.9411,VALID,28,VALID,0,
2008-02-23, 01:56:00,VALID,916.71,VALID,0,VALID,100,VALID,0.0679233,VALID,19.9476,VALID,28,VALID,0,
2008-02-23, 01:57:00,VALID,916.711,VALID,0,VALID,100,VALID,0.0509425,VALID,19.9376,VALID,28,VALID,0,
2008-02-23, 01:58:00,VALID,916.711,VALID,0,VALID,100,VALID,0.0169808,VALID,19.9411,VALID,28,VALID,0,
2008-02-23, 01:59:00,VALID,916.678,VALID,0,VALID,100,VALID,0.0169808,VALID,19.9312,VALID,28,VALID,0,
2008-02-23, 02:00:00,VALID,916.649,VALID,0,VALID,100,VALID,0.0339617,VALID,19.9344,VALID,28,VALID,0,
2008-02-23, 02:01:00,VALID,916.594,VALID,0,VALID,100,VALID,0,VALID,19.9282,VALID,28,VALID,0,
2008-02-23, 02:02:00,VALID,916.551,VALID,0,VALID,100,VALID,0,VALID,19.9317,VALID,28,VALID,0,
2008-02-23, 02:03:00,VALID,916.525,VALID,0,VALID,100,VALID,0.0339617,VALID,19.9349,VALID,28,VALID,0,
2008-02-23, 02:04:00,VALID,916.516,VALID,0,VALID,100,VALID,0.0169808,VALID,19.9249,VALID,28,VALID,0,
2008-02-23, 02:05:00,VALID,916.512,VALID,0,VALID,100,VALID,0.0339617,VALID,19.9149,VALID,28,VALID,0,
2008-02-23, 02:06:00,VALID,916.511,VALID,0,VALID,100,VALID,0.0679233,VALID,19.9152,VALID,28,VALID,0,
2008-02-23, 02:07:00,VALID,916.491,VALID,0,VALID,100,VALID,0.0169808,VALID,19.9087,VALID,28,VALID,0,
2008-02-23, 02:08:00,VALID,916.463,VALID,0,VALID,100,VALID,0.0509425,VALID,19.9082,VALID,28,VALID,0,
2008-02-23, 02:09:00,VALID,916.445,VALID,0,VALID,100,VALID,0,VALID,19.9119,VALID,28,VALID,0,
2008-02-23, 02:10:00,VALID,916.438,VALID,0,VALID,100,VALID,0.0169808,VALID,19.8857,VALID,28,VALID,0,
2008-02-23, 02:11:00,VALID,916.432,VALID,0,VALID,100,VALID,0.0169808,VALID,19.8598,VALID,28,VALID,0,
2008-02-23, 02:12:00,VALID,916.417,VALID,0,VALID,100,VALID,0.0169808,VALID,19.87,VALID,28,VALID,0,
2008-02-23, 02:13:00,VALID,916.417,VALID,0,VALID,100,VALID,-0.0679233,VALID,19.8483,VALID,28,VALID,0,
2008-02-23, 02:14:00,VALID,916.383,VALID,0,VALID,100,VALID,-0.0849042,VALID,19.8258,VALID,28,VALID,0,
2008-02-23, 02:15:00,VALID,916.363,VALID,0,VALID,100,VALID,-0.0679233,VALID,19.8161,VALID,28,VALID,0,
2008-02-23, 02:16:00,VALID,916.352,VALID,0,VALID,100,VALID,-0.0849042,VALID,19.8031,VALID,28,VALID,0,
2008-02-23, 02:17:00,VALID,916.343,VALID,0,VALID,100,VALID,-0.101885,VALID,19.8034,VALID,28,VALID,0,
2008-02-23, 02:18:00,VALID,916.308,VALID,0,VALID,100,VALID,-0.0679233,VALID,19.8161,VALID,28,VALID,0,
2008-02-23, 02:19:00,VALID,916.282,VALID,0,VALID,100,VALID,-0.0849042,VALID,19.8256,VALID,28,VALID,0,
2008-02-23, 02:20:00,VALID,916.266,VALID,0,VALID,100,VALID,-0.0679233,VALID,19.8516,VALID,28,VALID,0,
2008-02-23, 02:21:00,VALID,916.244,VALID,0,VALID,100,VALID,-0.101885,VALID,19.865,VALID,28,VALID,0,
2008-02-23, 02:22:00,VALID,916.224,VALID,0,VALID,100,VALID,-0.0679233,VALID,19.864,VALID,28,VALID,0,
2008-02-23, 02:23:00,VALID,916.226,VALID,0,VALID,100,VALID,-0.0849042,VALID,19.8516,VALID,28,VALID,0,
2008-02-23, 02:24:00,VALID,916.22,VALID,0,VALID,100,VALID,-0.0509425,VALID,19.8453,VALID,28,VALID,0,
2008-02-23, 02:25:00,VALID,916.21,VALID,0,VALID,100,VALID,-0.0849042,VALID,19.8323,VALID,28,VALID,0,
2008-02-23, 02:26:00,VALID,916.187,VALID,0,VALID,100,VALID,-0.0679233,VALID,19.8094,VALID,28,VALID,0,
2008-02-23, 02:27:00,VALID,916.177,VALID,0,VALID,100,VALID,-0.0679233,VALID,19.7929,VALID,28,VALID,0,
2008-02-23, 02:28:00,VALID,916.156,VALID,0,VALID,100,VALID,0.0339617,VALID,19.7919,VALID,28,VALID,0,
2008-02-23, 02:29:00,VALID,916.142,VALID,0,VALID,100,VALID,0.0509425,VALID,19.7789,VALID,28,VALID,0,
2008-02-23, 02:30:00,VALID,916.131,VALID,0,VALID,100,VALID,0,VALID,19.7887,VALID,28,VALID,0,
2008-02-23, 02:31:00,VALID,916.131,VALID,0,VALID,100,VALID,0.0169808,VALID,19.7919,VALID,28,VALID,0,
2008-02-23, 02:32:00,VALID,916.122,VALID,0,VALID,100,VALID,-0.0169808,VALID,19.7854,VALID,28,VALID,0,
2008-02-23, 02:33:00,VALID,916.09,VALID,0,VALID,100,VALID,0.0169808,VALID,19.7562,VALID,28,VALID,0,
2008-02-23, 02:34:00,VALID,916.061,VALID,0,VALID,100,VALID,0.0339617,VALID,19.7235,VALID,28,VALID,0,
2008-02-23, 02:35:00,VALID,916.043,VALID,0,VALID,100,VALID,0.0169808,VALID,19.7008,VALID,28,VALID,0,
2008-02-23, 02:36:00,VALID,916.05,VALID,0,VALID,100,VALID,0.0509425,VALID,19.6911,VALID,29,VALID,0,
2008-02-23, 02:37:00,VALID,916.054,VALID,0,VALID,100,VALID,0.0169808,VALID,19.6908,VALID,28,VALID,0,
2008-02-23, 02:38:00,VALID,916.07,VALID,0,VALID,100,VALID,0.0169808,VALID,19.7205,VALID,28,VALID,0,
2008-02-23, 02:39:00,VALID,916.081,VALID,0,VALID,100,VALID,0.0849042,VALID,19.72,VALID,28,VALID,0,
2008-02-23, 02:40:00,VALID,916.075,VALID,0,VALID,100,VALID,0.0339617,VALID,19.6976,VALID,28,VALID,0,
2008-02-23, 02:41:00,VALID,916.071,VALID,0,VALID,100,VALID,0.0339617,VALID,19.6913,VALID,28,VALID,0,
2008-02-23, 02:42:00,VALID,916.043,VALID,0,VALID,100,VALID,0.0339617,VALID,19.6976,VALID,29,VALID,0,
2008-02-23, 02:43:00,VALID,916.02,VALID,0,VALID,100,VALID,-0.0339617,VALID,19.7313,VALID,28,VALID,0,
2008-02-23, 02:44:00,VALID,916.017,VALID,0,VALID,100,VALID,-0.0169808,VALID,19.7313,VALID,28,VALID,0,
2008-02-23, 02:45:00,VALID,916.034,VALID,0,VALID,100,VALID,-0.0169808,VALID,19.7218,VALID,28,VALID,0,
2008-02-23, 02:46:00,VALID,916.042,VALID,0,VALID,100,VALID,0,VALID,19.715,VALID,28,VALID,0,
2008-02-23, 02:47:00,VALID,916.062,VALID,0,VALID,100,VALID,-0.0169808,VALID,19.7143,VALID,28,VALID,0,
2008-02-23, 02:48:00,VALID,916.056,VALID,0,VALID,100,VALID,0.0169808,VALID,19.7345,VALID,28,VALID,0,
2008-02-23, 02:49:00,VALID,916.026,VALID,0,VALID,100,VALID,-0.0169808,VALID,19.734,VALID,28,VALID,0,
2008-02-23, 02:50:00,VALID,916.005,VALID,0,VALID,100,VALID,-0.0169808,VALID,19.7542,VALID,28,VALID,0,
2008-02-23, 02:51:00,VALID,916,VALID,0,VALID,100,VALID,0,VALID,19.7475,VALID,28,VALID,0,
2008-02-23, 02:52:00,VALID,916.004,VALID,0,VALID,100,VALID,-0.0169808,VALID,19.7372,VALID,28,VALID,0,
2008-02-23, 02:53:00,VALID,916.013,VALID,0,VALID,100,VALID,-0.0679233,VALID,19.7475,VALID,28,VALID,0,
2008-02-23, 02:54:00,VALID,916.011,VALID,0,VALID,100,VALID,-0.0339617,VALID,19.7507,VALID,28,VALID,0,
2008-02-23, 02:55:00,VALID,915.992,VALID,0,VALID,100,VALID,-0.0169808,VALID,19.7342,VALID,28,VALID,0,
2008-02-23, 02:56:00,VALID,915.96,VALID,0,VALID,100,VALID,0,VALID,19.7537,VALID,29,VALID,0,
2008-02-23, 02:57:00,VALID,915.938,VALID,0,VALID,100,VALID,0,VALID,19.7637,VALID,29,VALID,0,
2008-02-23, 02:58:00,VALID,915.927,VALID,0,VALID,100,VALID,0.0339617,VALID,19.7629,VALID,29,VALID,0,
2008-02-23, 02:59:00,VALID,915.924,VALID,0,VALID,100,VALID,-0.0339617,VALID,19.7724,VALID,29,VALID,0,
2008-02-23, 03:00:00,VALID,915.923,VALID,0,VALID,100,VALID,0,VALID,19.8021,VALID,29,VALID,0,
2008-02-23, 03:01:00,VALID,915.95,VALID,0,VALID,100,VALID,-0.0169808,VALID,19.8253,VALID,29,VALID,0,
2008-02-23, 03:02:00,VALID,915.973,VALID,0,VALID,100,VALID,-0.0339617,VALID,19.8154,VALID,29,VALID,0,
2008-02-23, 03:03:00,VALID,915.978,VALID,0,VALID,100,VALID,-0.0169808,VALID,19.7956,VALID,29,VALID,0,
2008-02-23, 03:04:00,VALID,915.99,VALID,0,VALID,100,VALID,0,VALID,19.8026,VALID,29,VALID,0,
2008-02-23, 03:05:00,VALID,915.986,VALID,0,VALID,100,VALID,-0.0169808,VALID,19.7919,VALID,29,VALID,0,
2008-02-23, 03:06:00,VALID,915.978,VALID,0,VALID,100,VALID,-0.0169808,VALID,19.7694,VALID,31,VALID,0,
2008-02-23, 03:07:00,VALID,915.956,VALID,0,VALID,100,VALID,0,VALID,19.7597,VALID,23,VALID,0,
2008-02-23, 03:08:00,VALID,915.953,VALID,0,VALID,100,VALID,0,VALID,19.7597,VALID,11,VALID,0,
2008-02-23, 03:09:00,VALID,915.951,VALID,0,VALID,100,VALID,-0.0169808,VALID,19.7729,VALID,10,VALID,0,
2008-02-23, 03:10:00,VALID,915.959,VALID,0,VALID,100,VALID,0,VALID,19.7729,VALID,13,VALID,0,
2008-02-23, 03:11:00,VALID,915.965,VALID,0,VALID,100,VALID,-0.0169808,VALID,19.7694,VALID,19,VALID,0,
2008-02-23, 03:12:00,VALID,915.965,VALID,0,VALID,100,VALID,0,VALID,19.8024,VALID,19,VALID,0,
2008-02-23, 03:13:00,VALID,915.96,VALID,0,VALID,100,VALID,0,VALID,19.8056,VALID,19,VALID,0,
2008-02-23, 03:14:00,VALID,915.919,VALID,0,VALID,100,VALID,0,VALID,19.8024,VALID,24,VALID,0,
2008-02-23, 03:15:00,VALID,915.89,VALID,0,VALID,100,VALID,0,VALID,19.7832,VALID,27,VALID,1.11009,
2008-02-23, 03:16:00,VALID,915.856,VALID,0,VALID,100,VALID,-0.0169808,VALID,19.737,VALID,24,VALID,1.02604,
2008-02-23, 03:17:00,VALID,915.876,VALID,0,VALID,100,VALID,-0.0169808,VALID,19.7243,VALID,20,VALID,1.20585,
2008-02-23, 03:18:00,VALID,915.882,VALID,0,VALID,100,VALID,0,VALID,19.7278,VALID,9,VALID,0.897866,
2008-02-23, 03:19:00,VALID,915.87,VALID,0,VALID,100,VALID,0,VALID,19.6978,VALID,5,VALID,0.752308,
2008-02-23, 03:20:00,VALID,915.869,VALID,0,VALID,100,VALID,0,VALID,19.6951,VALID,15,VALID,1.08345,
2008-02-23, 03:21:00,VALID,915.859,VALID,0,VALID,100,VALID,-0.0169808,VALID,19.6981,VALID,12,VALID,0.642045,
2008-02-23, 03:22:00,VALID,915.848,VALID,0,VALID,100,VALID,0.0339617,VALID,19.7043,VALID,4,VALID,0.5754,
2008-02-23, 03:23:00,VALID,915.821,VALID,0,VALID,100,VALID,0.0339617,VALID,19.708,VALID,7,VALID,0.0563227,
2008-02-23, 03:24:00,VALID,915.796,VALID,0,VALID,100,VALID,0,VALID,19.6783,VALID,18,VALID,0.806734,
2008-02-23, 03:25:00,VALID,915.776,VALID,0,VALID,100,VALID,0,VALID,19.6888,VALID,20,VALID,0.587788,
2008-02-23, 03:26:00,VALID,915.766,VALID,0,VALID,100,VALID,0,VALID,19.6946,VALID,25,VALID,0.598437,
2008-02-23, 03:27:00,VALID,915.766,VALID,0,VALID,100,VALID,0.0169808,VALID,19.6913,VALID,355,VALID,0.321007,
2008-02-23, 03:28:00,VALID,915.773,VALID,0,VALID,100,VALID,0,VALID,19.6881,VALID,334,VALID,0.600718,
2008-02-23, 03:29:00,VALID,915.773,VALID,0,VALID,100,VALID,-0.0339617,VALID,19.6719,VALID,327,VALID,0.046689,
2008-02-23, 03:30:00,VALID,915.75,VALID,0,VALID,100,VALID,0,VALID,19.6758,VALID,327,VALID,0,
2008-02-23, 03:31:00,VALID,915.723,VALID,0,VALID,100,VALID,-0.0169808,VALID,19.6624,VALID,2,VALID,0,
2008-02-23, 03:32:00,VALID,915.707,VALID,0,VALID,100,VALID,0.0169808,VALID,19.6686,VALID,7,VALID,0,
2008-02-23, 03:33:00,VALID,915.692,VALID,0,VALID,100,VALID,0,VALID,19.6921,VALID,7,VALID,0,
2008-02-23, 03:34:00,VALID,915.674,VALID,0,VALID,100,VALID,0,VALID,19.6851,VALID,7,VALID,0,
2008-02-23, 03:35:00,VALID,915.662,VALID,0,VALID,100,VALID,-0.0339617,VALID,19.6893,VALID,7,VALID,0,
2008-02-23, 03:36:00,VALID,915.665,VALID,0,VALID,100,VALID,-0.0169808,VALID,19.6529,VALID,7,VALID,0,
2008-02-23, 03:37:00,VALID,915.679,VALID,0,VALID,100,VALID,-0.0169808,VALID,19.6339,VALID,7,VALID,0,
2008-02-23, 03:38:00,VALID,915.699,VALID,0,VALID,100,VALID,-0.0169808,VALID,19.6209,VALID,303,VALID,0,
2008-02-23, 03:39:00,VALID,915.696,VALID,0,VALID,100,VALID,-0.0169808,VALID,19.608,VALID,271,VALID,0,
2008-02-23, 03:40:00,VALID,915.683,VALID,0,VALID,100,VALID,-0.0169808,VALID,19.6017,VALID,271,VALID,0,
2008-02-23, 03:41:00,VALID,915.677,VALID,0,VALID,100,VALID,-0.0339617,VALID,19.582,VALID,271,VALID,0,
2008-02-23, 03:42:00,VALID,915.671,VALID,0,VALID,100,VALID,-0.0169808,VALID,19.572,VALID,271,VALID,0,
2008-02-23, 03:43:00,VALID,915.675,VALID,0,VALID,100,VALID,0.0509425,VALID,19.5775,VALID,271,VALID,0,
2008-02-23, 03:44:00,VALID,915.673,VALID,0,VALID,100,VALID,0.0509425,VALID,19.5705,VALID,271,VALID,0,
2008-02-23, 03:45:00,VALID,915.681,VALID,0,VALID,100,VALID,0.0849042,VALID,19.567,VALID,271,VALID,0,
2008-02-23, 03:46:00,VALID,915.688,VALID,0,VALID,100,VALID,0.0679233,VALID,19.5573,VALID,271,VALID,0,
2008-02-23, 03:47:00,VALID,915.711,VALID,0,VALID,100,VALID,0.0679233,VALID,19.5376,VALID,271,VALID,0,
2008-02-23, 03:48:00,VALID,915.739,VALID,0,VALID,100,VALID,0.0849042,VALID,19.5284,VALID,271,VALID,0,
2008-02-23, 03:49:00,VALID,915.758,VALID,0,VALID,100,VALID,0.0679233,VALID,19.5052,VALID,271,VALID,0,
2008-02-23, 03:50:01,VALID,915.779,VALID,0,VALID,100,VALID,0.0339617,VALID,19.4929,VALID,271,VALID,0,
2008-02-23, 03:51:00,VALID,915.796,VALID,0,VALID,100,VALID,0.0509425,VALID,19.4408,VALID,271,VALID,0,
2008-02-23, 03:52:01,VALID,915.811,VALID,0,VALID,100,VALID,0.0169808,VALID,19.4276,VALID,271,VALID,0,
2008-02-23, 03:53:00,VALID,915.839,VALID,0,VALID,100,VALID,0.0679233,VALID,19.44,VALID,271,VALID,0,